Starlink 2566

operational
NORAD ID: 48287 Int'l Des: 2021-036 Owner: SPXS Country: US Constellation: starlink
LEOCIRCULARSTARLINK_TYPE

Über Starlink 2566

Beschreibung wird geladen...

Live-Position

3D-Globus wird geladen...

Nächste Überflüge

Höhenverlauf

Altitude vs Time

uPlot chart will show altitude changes over time

Zweizeiliger Elementsatz

1 48287U 21036M 25353.43670045 .00002376 00000-0 17834-3 0 9992
2 48287 53.0545 81.8896 0001320 74.9639 285.1496 15.06407084256213
Epoch: 19. Dez. 2025 • Age: 11 hours

Aktueller Status

Höhe 552.4 km
Geschwindigkeit 7.59 km/s
Subsatellitenpunkt 51.15°N, 89.76°E
Startdatum 29. Apr. 2021
Alter 4.6 years
Typ internet

Technische Details

Klassifizierung Payload
Masse 260.00 kg
Trockenmasse 248.00 kg
Gesamtmasse 260.00 kg
Länge 0.20 m
Durchmesser 2.80 m
Spannweite 9.00 m
Form Box + pan
Hersteller SPXS
Bus-Typ Starlink
Phasenstatus In Orbit
Besitzer/Staat SPXS/US

Große Konstellationen

Loading constellations...